Time,TemperatureF,DewpointF,PressureIn,WindDirection,WindDirectionDegrees,WindSpeedMPH,WindSpeedGustMPH,Humidity,HourlyPrecipIn,Conditions,Clouds,dailyrainin,SoftwareType,DateUTC
2013-10-24 00:00:00,43.1,37.0,30.28,NE,41,1.0,4.0,79,0.00,,---,0.00,VWS V14.01,2013-10-24 05:00:00,
2013-10-24 00:02:00,43.1,37.0,30.28,NE,49,0.0,1.0,79,0.00,,---,0.00,VWS V14.01,2013-10-24 05:02:00,
2013-10-24 00:07:00,43.0,36.9,30.28,NNE,31,3.0,4.0,79,0.00,,---,0.00,VWS V14.01,2013-10-24 05:07:00,
2013-10-24 00:10:00,42.9,36.8,30.28,NNE,30,0.0,4.0,79,0.00,,---,0.00,VWS V14.01,2013-10-24 05:10:00,
2013-10-24 00:12:00,42.9,36.8,30.28,NE,34,0.0,3.0,79,0.00,,---,0.00,VWS V14.01,2013-10-24 05:12:00,
2013-10-24 00:17:00,42.8,37.1,30.28,NE,34,0.0,3.0,80,0.00,,---,0.00,VWS V14.01,2013-10-24 05:17:00,
2013-10-24 00:20:00,42.8,37.1,30.28,West,280,0.0,4.0,80,0.00,,---,0.00,VWS V14.01,2013-10-24 05:20:00,
2013-10-24 00:22:00,42.7,37.0,30.28,West,281,0.0,2.0,80,0.00,,---,0.00,VWS V14.01,2013-10-24 05:22:00,
2013-10-24 00:27:00,42.7,37.0,30.28,NNE,31,5.0,6.0,80,0.00,,---,0.00,VWS V14.01,2013-10-24 05:27:00,
2013-10-24 00:30:00,42.6,36.9,30.28,NE,46,0.0,6.0,80,0.00,,---,0.00,VWS V14.01,2013-10-24 05:30:00,
2013-10-24 00:32:00,42.5,36.8,30.29,NE,46,0.0,1.0,80,0.00,,---,0.00,VWS V14.01,2013-10-24 05:32:00,
2013-10-24 00:37:00,42.4,36.7,30.28,ENE,69,0.0,3.0,80,0.00,,---,0.00,VWS V14.01,2013-10-24 05:37:00,
2013-10-24 00:40:00,42.4,36.7,30.28,ENE,69,0.0,3.0,80,0.00,,---,0.00,VWS V14.01,2013-10-24 05:40:00,
2013-10-24 00:42:00,42.4,36.7,30.28,ENE,69,0.0,0.0,80,0.00,,---,0.00,VWS V14.01,2013-10-24 05:42:00,
2013-10-24 00:47:00,42.2,36.5,30.28,ENE,63,0.0,2.0,80,0.00,,---,0.00,VWS V14.01,2013-10-24 05:47:00,
2013-10-24 00:50:00,42.2,36.5,30.28,ENE,63,1.0,2.0,80,0.00,,---,0.00,VWS V14.01,2013-10-24 05:50:00,
2013-10-24 00:52:00,42.1,36.4,30.28,ENE,63,0.0,1.0,80,0.00,,---,0.00,VWS V14.01,2013-10-24 05:52:00,
2013-10-24 00:57:00,42.0,36.3,30.28,ENE,63,0.0,3.0,80,0.00,,---,0.00,VWS V14.01,2013-10-24 05:57:00,
2013-10-24 01:00:00,41.9,36.2,30.28,ENE,63,0.0,3.0,80,0.00,,---,0.00,VWS V14.01,2013-10-24 06:00:00,
2013-10-24 01:02:00,41.9,36.2,30.28,ENE,63,0.0,1.0,80,0.00,,---,0.00,VWS V14.01,2013-10-24 06:02:00,
2013-10-24 01:07:00,41.8,35.8,30.28,ENE,63,0.0,1.0,79,0.00,,---,0.00,VWS V14.01,2013-10-24 06:07:00,
2013-10-24 01:10:00,41.7,36.0,30.28,ENE,63,0.0,1.0,80,0.00,,---,0.00,VWS V14.01,2013-10-24 06:10:00,
2013-10-24 01:12:00,41.7,36.0,30.28,ENE,63,0.0,0.0,80,0.00,,---,0.00,VWS V14.01,2013-10-24 06:12:00,
2013-10-24 01:17:00,41.7,36.0,30.28,ENE,63,0.0,0.0,80,0.00,,---,0.00,VWS V14.01,2013-10-24 06:17:00,
2013-10-24 01:20:00,41.7,35.7,30.28,ENE,63,0.0,0.0,79,0.00,,---,0.00,VWS V14.01,2013-10-24 06:20:00,
2013-10-24 01:22:00,41.6,35.6,30.29,ENE,63,0.0,0.0,79,0.00,,---,0.00,VWS V14.01,2013-10-24 06:22:00,
2013-10-24 01:27:00,41.6,35.6,30.29,ENE,63,2.0,2.0,79,0.00,,---,0.00,VWS V14.01,2013-10-24 06:27:00,
2013-10-24 01:30:00,41.6,35.6,30.29,ENE,63,0.0,3.0,79,0.00,,---,0.00,VWS V14.01,2013-10-24 06:30:00,
2013-10-24 01:32:00,41.6,35.6,30.29,ENE,63,0.0,0.0,79,0.00,,---,0.00,VWS V14.01,2013-10-24 06:32:00,
2013-10-24 01:37:00,41.6,35.6,30.29,ENE,63,0.0,0.0,79,0.00,,---,0.00,VWS V14.01,2013-10-24 06:37:00,
2013-10-24 01:40:00,41.6,35.6,30.29,ENE,63,0.0,0.0,79,0.00,,---,0.00,VWS V14.01,2013-10-24 06:40:00,
2013-10-24 01:42:00,41.6,35.6,30.29,ENE,63,0.0,0.0,79,0.00,,---,0.00,VWS V14.01,2013-10-24 06:42:00,
2013-10-24 01:47:00,41.6,35.6,30.29,ENE,63,0.0,0.0,79,0.00,,---,0.00,VWS V14.01,2013-10-24 06:47:00,
2013-10-24 01:50:00,41.5,35.5,30.29,ENE,63,0.0,0.0,79,0.00,,---,0.00,VWS V14.01,2013-10-24 06:50:00,
2013-10-24 01:52:00,41.5,35.5,30.29,ENE,63,0.0,0.0,79,0.00,,---,0.00,VWS V14.01,2013-10-24 06:52:00,
2013-10-24 01:57:00,41.4,35.4,30.29,ENE,63,0.0,0.0,79,0.00,,---,0.00,VWS V14.01,2013-10-24 06:57:00,
2013-10-24 02:00:00,41.4,35.4,30.29,ENE,63,0.0,2.0,79,0.00,,---,0.00,VWS V14.01,2013-10-24 07:00:00,
2013-10-24 02:02:00,41.3,35.3,30.29,ENE,63,0.0,0.0,79,0.00,,---,0.00,VWS V14.01,2013-10-24 07:02:00,
2013-10-24 02:07:00,41.3,35.3,30.30,ENE,63,0.0,0.0,79,0.00,,---,0.00,VWS V14.01,2013-10-24 07:07:00,
2013-10-24 02:10:00,41.1,35.1,30.30,ENE,63,0.0,0.0,79,0.00,,---,0.00,VWS V14.01,2013-10-24 07:10:00,
2013-10-24 02:12:00,41.1,35.1,30.30,ENE,63,0.0,0.0,79,0.00,,---,0.00,VWS V14.01,2013-10-24 07:12:00,
2013-10-24 02:17:00,41.0,35.3,30.30,ENE,63,0.0,1.0,80,0.00,,---,0.00,VWS V14.01,2013-10-24 07:17:00,
2013-10-24 02:20:00,40.9,35.2,30.30,ENE,63,0.0,1.0,80,0.00,,---,0.00,VWS V14.01,2013-10-24 07:20:00,
2013-10-24 02:22:00,40.8,35.1,30.30,ENE,63,0.0,0.0,80,0.00,,---,0.00,VWS V14.01,2013-10-24 07:22:00,
2013-10-24 02:27:00,40.6,34.9,30.30,ENE,63,0.0,0.0,80,0.00,,---,0.00,VWS V14.01,2013-10-24 07:27:00,
2013-10-24 02:30:00,40.5,34.8,30.30,ENE,63,0.0,0.0,80,0.00,,---,0.00,VWS V14.01,2013-10-24 07:30:00,
2013-10-24 02:32:00,40.4,34.7,30.30,ENE,63,0.0,0.0,80,0.00,,---,0.00,VWS V14.01,2013-10-24 07:32:00,
2013-10-24 02:37:00,40.2,34.5,30.31,ENE,63,0.0,1.0,80,0.00,,---,0.00,VWS V14.01,2013-10-24 07:37:00,
2013-10-24 02:40:00,40.1,34.4,30.31,ENE,63,0.0,1.0,80,0.00,,---,0.00,VWS V14.01,2013-10-24 07:40:00,
2013-10-24 02:42:00,40.0,34.7,30.31,ENE,63,0.0,1.0,81,0.00,,---,0.00,VWS V14.01,2013-10-24 07:42:00,
2013-10-24 02:47:00,39.8,34.5,30.31,ENE,63,0.0,1.0,81,0.00,,---,0.00,VWS V14.01,2013-10-24 07:47:00,
2013-10-24 02:50:00,39.7,34.7,30.31,ENE,63,0.0,1.0,82,0.00,,---,0.00,VWS V14.01,2013-10-24 07:50:00,
2013-10-24 02:52:00,39.6,34.6,30.32,ENE,63,0.0,1.0,82,0.00,,---,0.00,VWS V14.01,2013-10-24 07:52:00,
2013-10-24 02:57:00,39.4,34.4,30.32,ENE,63,0.0,1.0,82,0.00,,---,0.00,VWS V14.01,2013-10-24 07:57:00,
2013-10-24 03:00:00,39.3,34.6,30.32,ENE,63,0.0,1.0,83,0.00,,---,0.00,VWS V14.01,2013-10-24 08:00:00,
2013-10-24 03:02:00,39.3,34.6,30.32,ENE,63,0.0,1.0,83,0.00,,---,0.00,VWS V14.01,2013-10-24 08:02:00,
2013-10-24 03:07:00,39.1,34.4,30.32,ENE,63,0.0,1.0,83,0.00,,---,0.00,VWS V14.01,2013-10-24 08:07:00,
2013-10-24 03:10:00,39.0,34.6,30.32,ENE,63,1.0,2.0,84,0.00,,---,0.00,VWS V14.01,2013-10-24 08:10:00,
2013-10-24 03:12:00,38.9,34.5,30.32,ENE,63,0.0,1.0,84,0.00,,---,0.00,VWS V14.01,2013-10-24 08:12:00,
2013-10-24 03:17:00,38.8,34.4,30.32,ENE,63,0.0,1.0,84,0.00,,---,0.00,VWS V14.01,2013-10-24 08:17:00,
2013-10-24 03:20:00,38.8,34.4,30.32,ENE,63,0.0,1.0,84,0.00,,---,0.00,VWS V14.01,2013-10-24 08:20:00,
2013-10-24 03:22:00,38.7,34.6,30.31,ENE,63,0.0,1.0,85,0.00,,---,0.00,VWS V14.01,2013-10-24 08:22:00,
2013-10-24 03:27:00,38.7,34.6,30.31,ENE,63,0.0,1.0,85,0.00,,---,0.00,VWS V14.01,2013-10-24 08:27:00,
2013-10-24 03:30:00,38.7,34.9,30.31,ENE,63,0.0,2.0,86,0.00,,---,0.00,VWS V14.01,2013-10-24 08:30:00,
2013-10-24 03:32:00,38.7,34.9,30.31,ENE,63,0.0,1.0,86,0.00,,---,0.00,VWS V14.01,2013-10-24 08:32:00,
2013-10-24 03:37:00,38.8,35.0,30.32,NNW,328,0.0,2.0,86,0.00,,---,0.00,VWS V14.01,2013-10-24 08:37:00,
2013-10-24 03:40:00,38.9,35.1,30.32,NW,308,1.0,2.0,86,0.00,,---,0.00,VWS V14.01,2013-10-24 08:40:00,
2013-10-24 03:42:00,38.9,35.1,30.32,NW,308,0.0,1.0,86,0.00,,---,0.00,VWS V14.01,2013-10-24 08:42:00,
2013-10-24 03:47:00,39.0,34.9,30.32,WNW,301,2.0,2.0,85,0.00,,---,0.00,VWS V14.01,2013-10-24 08:47:00,
2013-10-24 03:50:00,39.1,35.0,30.32,WNW,298,0.0,4.0,85,0.00,,---,0.00,VWS V14.01,2013-10-24 08:50:00,
2013-10-24 03:52:00,39.2,35.1,30.32,WNW,298,1.0,2.0,85,0.00,,---,0.00,VWS V14.01,2013-10-24 08:52:00,
2013-10-24 03:57:00,39.3,34.9,30.32,WNW,300,2.0,2.0,84,0.00,,---,0.00,VWS V14.01,2013-10-24 08:57:00,
2013-10-24 04:00:00,39.4,35.0,30.33,WNW,300,1.0,2.0,84,0.00,,---,0.00,VWS V14.01,2013-10-24 09:00:00,
2013-10-24 04:02:00,39.5,35.1,30.33,West,279,2.0,4.0,84,0.00,,---,0.00,VWS V14.01,2013-10-24 09:02:00,
2013-10-24 04:07:00,39.7,35.0,30.33,WNW,290,0.0,5.0,83,0.00,,---,0.00,VWS V14.01,2013-10-24 09:07:00,
2013-10-24 04:10:00,39.8,35.1,30.33,WNW,290,0.0,5.0,83,0.00,,---,0.00,VWS V14.01,2013-10-24 09:10:00,
2013-10-24 04:12:00,39.8,35.1,30.33,WNW,296,2.0,4.0,83,0.00,,---,0.00,VWS V14.01,2013-10-24 09:12:00,
2013-10-24 04:17:00,39.9,35.2,30.34,West,279,0.0,4.0,83,0.00,,---,0.00,VWS V14.01,2013-10-24 09:17:00,
2013-10-24 04:20:00,39.9,35.2,30.34,West,277,1.0,6.0,83,0.00,,---,0.00,VWS V14.01,2013-10-24 09:20:00,
2013-10-24 04:22:00,39.9,35.2,30.34,WNW,295,2.0,4.0,83,0.00,,---,0.00,VWS V14.01,2013-10-24 09:22:00,
2013-10-24 04:27:00,39.9,35.2,30.34,WNW,291,0.0,4.0,83,0.00,,---,0.00,VWS V14.01,2013-10-24 09:27:00,
2013-10-24 04:30:00,39.9,35.2,30.34,WNW,291,1.0,4.0,83,0.00,,---,0.00,VWS V14.01,2013-10-24 09:30:00,
2013-10-24 04:32:00,39.9,35.2,30.34,WNW,291,0.0,2.0,83,0.00,,---,0.00,VWS V14.01,2013-10-24 09:32:00,
2013-10-24 04:37:00,39.8,35.1,30.34,NW,317,1.0,4.0,83,0.00,,---,0.00,VWS V14.01,2013-10-24 09:37:00,
2013-10-24 04:40:00,39.8,35.1,30.35,WNW,284,1.0,6.0,83,0.00,,---,0.00,VWS V14.01,2013-10-24 09:40:00,
2013-10-24 04:42:00,39.8,35.1,30.34,WNW,296,4.0,5.0,83,0.00,,---,0.00,VWS V14.01,2013-10-24 09:42:00,
2013-10-24 04:47:00,39.8,35.1,30.35,NW,305,0.0,5.0,83,0.00,,---,0.00,VWS V14.01,2013-10-24 09:47:00,
2013-10-24 04:50:00,39.8,35.1,30.35,NW,305,0.0,5.0,83,0.00,,---,0.00,VWS V14.01,2013-10-24 09:50:00,
2013-10-24 04:52:00,39.8,35.1,30.35,NW,305,1.0,4.0,83,0.00,,---,0.00,VWS V14.01,2013-10-24 09:52:00,
2013-10-24 04:57:00,39.8,35.1,30.35,NW,305,0.0,4.0,83,0.00,,---,0.00,VWS V14.01,2013-10-24 09:57:00,
2013-10-24 05:00:00,39.7,35.0,30.36,NW,305,1.0,5.0,83,0.00,,---,0.00,VWS V14.01,2013-10-24 10:00:00,
2013-10-24 05:02:00,39.7,35.0,30.36,NW,305,0.0,1.0,83,0.00,,---,0.00,VWS V14.01,2013-10-24 10:02:00,
2013-10-24 05:07:00,39.7,35.0,30.36,WNW,290,0.0,4.0,83,0.00,,---,0.00,VWS V14.01,2013-10-24 10:07:00,
2013-10-24 05:10:00,39.7,35.0,30.36,WNW,290,1.0,4.0,83,0.00,,---,0.00,VWS V14.01,2013-10-24 10:10:00,
2013-10-24 05:12:00,39.7,35.0,30.36,WNW,290,0.0,2.0,83,0.00,,---,0.00,VWS V14.01,2013-10-24 10:12:00,
2013-10-24 05:17:00,39.6,34.9,30.36,WNW,290,0.0,2.0,83,0.00,,---,0.00,VWS V14.01,2013-10-24 10:17:00,
2013-10-24 05:20:00,39.6,34.9,30.36,WNW,290,1.0,2.0,83,0.00,,---,0.00,VWS V14.01,2013-10-24 10:20:00,
2013-10-24 05:22:00,39.5,34.5,30.36,WNW,290,0.0,1.0,82,0.00,,---,0.00,VWS V14.01,2013-10-24 10:22:00,
2013-10-24 05:26:00,39.4,34.4,30.36,WNW,290,0.0,1.0,82,0.00,,---,0.00,VWS V14.01,2013-10-24 10:26:00,
2013-10-24 05:30:00,39.3,34.3,30.36,WNW,290,0.0,1.0,82,0.00,,---,0.00,VWS V14.01,2013-10-24 10:30:00,
2013-10-24 05:31:00,39.2,34.2,30.36,WNW,290,0.0,1.0,82,0.00,,---,0.00,VWS V14.01,2013-10-24 10:31:00,
2013-10-24 05:36:00,39.0,34.0,30.37,WNW,290,0.0,1.0,82,0.00,,---,0.00,VWS V14.01,2013-10-24 10:36:00,
2013-10-24 05:40:00,38.9,33.9,30.37,WNW,290,0.0,1.0,82,0.00,,---,0.00,VWS V14.01,2013-10-24 10:40:00,
2013-10-24 05:41:00,38.8,33.8,30.37,WNW,290,0.0,4.0,82,0.00,,---,0.00,VWS V14.01,2013-10-24 10:41:00,
2013-10-24 05:46:00,38.6,33.6,30.37,WNW,290,1.0,4.0,82,0.00,,---,0.00,VWS V14.01,2013-10-24 10:46:00,
2013-10-24 05:50:00,38.5,33.2,30.37,WNW,290,1.0,4.0,81,0.00,,---,0.00,VWS V14.01,2013-10-24 10:50:00,
2013-10-24 05:51:00,38.4,33.1,30.38,WNW,290,0.0,1.0,81,0.00,,---,0.00,VWS V14.01,2013-10-24 10:51:00,
2013-10-24 05:56:00,38.2,32.9,30.38,WNW,290,0.0,1.0,81,0.00,,---,0.00,VWS V14.01,2013-10-24 10:56:00,
2013-10-24 06:00:00,38.0,32.7,30.38,WNW,290,0.0,2.0,81,0.00,,---,0.00,VWS V14.01,2013-10-24 11:00:00,
2013-10-24 06:01:00,37.9,32.6,30.38,WNW,290,0.0,1.0,81,0.00,,---,0.00,VWS V14.01,2013-10-24 11:01:00,
2013-10-24 06:06:00,37.8,32.2,30.39,WNW,290,0.0,4.0,80,0.00,,---,0.00,VWS V14.01,2013-10-24 11:06:00,
2013-10-24 06:10:00,37.7,32.1,30.39,WNW,290,0.0,4.0,80,0.00,,---,0.00,VWS V14.01,2013-10-24 11:10:00,
2013-10-24 06:11:00,37.6,32.0,30.39,WNW,290,1.0,2.0,80,0.00,,---,0.00,VWS V14.01,2013-10-24 11:11:00,
2013-10-24 06:16:00,37.5,31.9,30.39,WNW,290,1.0,4.0,80,0.00,,---,0.00,VWS V14.01,2013-10-24 11:16:00,
2013-10-24 06:20:00,37.4,31.8,30.39,WNW,290,1.0,4.0,80,0.00,,---,0.00,VWS V14.01,2013-10-24 11:20:00,
2013-10-24 06:21:00,37.3,31.7,30.39,WNW,290,1.0,1.0,80,0.00,,---,0.00,VWS V14.01,2013-10-24 11:21:00,
2013-10-24 06:26:00,37.2,31.9,30.39,WNW,290,1.0,2.0,81,0.00,,---,0.00,VWS V14.01,2013-10-24 11:26:00,
2013-10-24 06:30:00,37.1,31.8,30.39,WNW,290,0.0,2.0,81,0.00,,---,0.00,VWS V14.01,2013-10-24 11:30:00,
2013-10-24 06:31:00,37.0,31.7,30.39,WNW,290,0.0,1.0,81,0.00,,---,0.00,VWS V14.01,2013-10-24 11:31:00,
2013-10-24 06:36:00,36.9,31.9,30.40,WNW,290,0.0,1.0,82,0.00,,---,0.00,VWS V14.01,2013-10-24 11:36:00,
2013-10-24 06:40:00,36.8,31.8,30.40,WNW,290,0.0,1.0,82,0.00,,---,0.00,VWS V14.01,2013-10-24 11:40:00,
2013-10-24 06:41:00,36.8,31.8,30.40,WNW,290,1.0,2.0,82,0.00,,---,0.00,VWS V14.01,2013-10-24 11:41:00,
2013-10-24 06:46:00,36.7,32.0,30.40,WNW,290,1.0,2.0,83,0.00,,---,0.00,VWS V14.01,2013-10-24 11:46:00,
2013-10-24 06:50:00,36.6,31.9,30.40,WNW,290,1.0,2.0,83,0.00,,---,0.00,VWS V14.01,2013-10-24 11:50:00,
2013-10-24 06:51:00,36.5,31.8,30.41,WNW,290,1.0,2.0,83,0.00,,---,0.00,VWS V14.01,2013-10-24 11:51:00,
2013-10-24 06:56:00,36.4,32.0,30.41,WNW,290,0.0,2.0,84,0.00,,---,0.00,VWS V14.01,2013-10-24 11:56:00,
2013-10-24 07:00:00,36.4,32.0,30.40,WNW,292,0.0,4.0,84,0.00,,---,0.00,VWS V14.01,2013-10-24 12:00:00,
2013-10-24 07:01:00,36.3,31.9,30.41,WNW,292,1.0,2.0,84,0.00,,---,0.00,VWS V14.01,2013-10-24 12:01:00,
2013-10-24 07:06:00,36.3,32.2,30.41,WNW,292,0.0,4.0,85,0.00,,---,0.00,VWS V14.01,2013-10-24 12:06:00,
2013-10-24 07:10:00,36.2,32.1,30.41,WNW,292,0.0,4.0,85,0.00,,---,0.00,VWS V14.01,2013-10-24 12:10:00,
2013-10-24 07:11:00,36.2,32.1,30.41,WNW,292,1.0,2.0,85,0.00,,---,0.00,VWS V14.01,2013-10-24 12:11:00,
2013-10-24 07:16:00,36.1,32.0,30.41,WNW,292,0.0,2.0,85,0.00,,---,0.00,VWS V14.01,2013-10-24 12:16:00,
2013-10-24 07:20:00,36.0,31.6,30.41,WNW,292,1.0,2.0,84,0.00,,---,0.00,VWS V14.01,2013-10-24 12:20:00,
2013-10-24 07:21:00,35.9,31.5,30.41,WNW,292,0.0,2.0,84,0.00,,---,0.00,VWS V14.01,2013-10-24 12:21:00,
2013-10-24 07:26:00,35.8,31.5,30.41,WNW,292,0.0,2.0,84,0.00,,---,0.00,VWS V14.01,2013-10-24 12:26:00,
2013-10-24 07:30:00,35.8,31.5,30.41,NW,306,0.0,4.0,84,0.00,,---,0.00,VWS V14.01,2013-10-24 12:30:00,
2013-10-24 07:31:00,35.7,31.4,30.41,WNW,290,0.0,4.0,84,0.00,,---,0.00,VWS V14.01,2013-10-24 12:31:00,
2013-10-24 07:36:00,35.7,31.0,30.41,WNW,292,0.0,4.0,83,0.00,,---,0.00,VWS V14.01,2013-10-24 12:36:00,
2013-10-24 07:40:00,35.6,31.0,30.41,WNW,296,1.0,4.0,83,0.00,,---,0.00,VWS V14.01,2013-10-24 12:40:00,
2013-10-24 07:41:00,35.6,30.7,30.41,WNW,296,0.0,2.0,82,0.00,,---,0.00,VWS V14.01,2013-10-24 12:41:00,
2013-10-24 07:46:00,35.6,30.7,30.41,WNW,296,0.0,2.0,82,0.00,,---,0.00,VWS V14.01,2013-10-24 12:46:00,
2013-10-24 07:50:00,35.6,30.7,30.41,WNW,296,0.0,2.0,82,0.00,,---,0.00,VWS V14.01,2013-10-24 12:50:00,
2013-10-24 07:51:00,35.5,30.6,30.41,WNW,296,0.0,0.0,82,0.00,,---,0.00,VWS V14.01,2013-10-24 12:51:00,
2013-10-24 07:56:00,35.4,30.5,30.41,WNW,296,0.0,0.0,82,0.00,,---,0.00,VWS V14.01,2013-10-24 12:56:00,
2013-10-24 08:00:00,35.4,30.5,30.42,WNW,296,0.0,1.0,82,0.00,,---,0.00,VWS V14.01,2013-10-24 13:00:00,
2013-10-24 08:01:00,35.4,30.5,30.41,WNW,296,0.0,0.0,82,0.00,,---,0.00,VWS V14.01,2013-10-24 13:01:00,
2013-10-24 08:06:00,35.3,30.4,30.42,WNW,296,0.0,0.0,82,0.00,,---,0.00,VWS V14.01,2013-10-24 13:06:00,
2013-10-24 08:10:00,35.3,30.4,30.42,WNW,296,0.0,0.0,82,0.00,,---,0.00,VWS V14.01,2013-10-24 13:10:00,
2013-10-24 08:11:00,35.2,30.3,30.42,WNW,296,0.0,0.0,82,0.00,,---,0.00,VWS V14.01,2013-10-24 13:11:00,
2013-10-24 08:16:00,35.2,30.6,30.42,WNW,296,0.0,0.0,83,0.00,,---,0.00,VWS V14.01,2013-10-24 13:16:00,
2013-10-24 08:20:00,35.2,30.6,30.42,WNW,296,0.0,0.0,83,0.00,,---,0.00,VWS V14.01,2013-10-24 13:20:00,
2013-10-24 08:21:00,35.1,30.5,30.42,WNW,296,0.0,0.0,83,0.00,,---,0.00,VWS V14.01,2013-10-24 13:21:00,
2013-10-24 08:26:00,35.1,30.8,30.43,WNW,296,0.0,1.0,84,0.00,,---,0.00,VWS V14.01,2013-10-24 13:26:00,
2013-10-24 08:30:00,35.1,30.8,30.43,WNW,296,0.0,1.0,84,0.00,,---,0.00,VWS V14.01,2013-10-24 13:30:00,
2013-10-24 08:31:00,35.1,30.8,30.43,WNW,296,0.0,0.0,84,0.00,,---,0.00,VWS V14.01,2013-10-24 13:31:00,
2013-10-24 08:36:00,35.1,31.0,30.43,WNW,296,0.0,1.0,85,0.00,,---,0.00,VWS V14.01,2013-10-24 13:36:00,
2013-10-24 08:40:00,35.2,31.1,30.43,WNW,296,0.0,1.0,85,0.00,,---,0.00,VWS V14.01,2013-10-24 13:40:00,
2013-10-24 08:41:00,35.2,31.1,30.43,WNW,296,0.0,1.0,85,0.00,,---,0.00,VWS V14.01,2013-10-24 13:41:00,
2013-10-24 08:46:00,35.3,31.5,30.44,WNW,296,0.0,4.0,86,0.00,,---,0.00,VWS V14.01,2013-10-24 13:46:00,
2013-10-24 08:50:00,35.5,31.7,30.44,WNW,296,2.0,4.0,86,0.00,,---,0.00,VWS V14.01,2013-10-24 13:50:00,
2013-10-24 08:51:00,35.6,31.5,30.44,WNW,296,2.0,2.0,85,0.00,,---,0.00,VWS V14.01,2013-10-24 13:51:00,
2013-10-24 08:56:00,35.9,31.0,30.44,West,280,2.0,7.0,82,0.00,,---,0.00,VWS V14.01,2013-10-24 13:56:00,
2013-10-24 09:00:00,36.2,30.6,30.44,NW,325,0.0,7.0,80,0.00,,---,0.00,VWS V14.01,2013-10-24 14:00:00,
2013-10-24 09:01:00,36.4,30.8,30.44,NW,325,1.0,2.0,80,0.00,,---,0.00,VWS V14.01,2013-10-24 14:01:00,
2013-10-24 09:07:00,36.9,30.7,30.45,West,271,2.0,5.0,78,0.00,,---,0.00,VWS V14.01,2013-10-24 14:07:00,
2013-10-24 09:10:00,37.1,30.9,30.45,WNW,296,1.0,7.0,78,0.00,,---,0.00,VWS V14.01,2013-10-24 14:10:00,
2013-10-24 09:12:00,37.3,30.8,30.45,WNW,296,1.0,2.0,77,0.00,,---,0.00,VWS V14.01,2013-10-24 14:12:00,
2013-10-24 09:17:00,37.6,31.1,30.45,NW,323,2.0,8.0,77,0.00,,---,0.00,VWS V14.01,2013-10-24 14:17:00,
2013-10-24 09:20:00,37.8,30.9,30.45,NW,319,7.0,8.0,76,0.00,,---,0.00,VWS V14.01,2013-10-24 14:20:00,
2013-10-24 09:22:00,37.9,31.0,30.45,WSW,240,1.0,8.0,76,0.00,,---,0.00,VWS V14.01,2013-10-24 14:22:00,
2013-10-24 09:27:00,38.1,31.2,30.45,NE,40,4.0,8.0,76,0.00,,---,0.00,VWS V14.01,2013-10-24 14:27:00,
2013-10-24 09:30:00,38.2,31.3,30.45,WNW,294,2.0,8.0,76,0.00,,---,0.00,VWS V14.01,2013-10-24 14:30:00,
2013-10-24 09:32:00,38.3,31.4,30.46,West,269,2.0,7.0,76,0.00,,---,0.00,VWS V14.01,2013-10-24 14:32:00,
2013-10-24 09:37:00,38.4,31.2,30.46,WNW,286,2.0,12.0,75,0.00,,---,0.00,VWS V14.01,2013-10-24 14:37:00,
2013-10-24 09:40:00,38.5,31.3,30.45,NNW,336,0.0,12.0,75,0.00,,---,0.00,VWS V14.01,2013-10-24 14:40:00,
2013-10-24 09:42:00,38.5,31.3,30.46,NE,55,3.0,5.0,75,0.00,,---,0.00,VWS V14.01,2013-10-24 14:42:00,
2013-10-24 09:47:00,38.8,31.6,30.46,NW,325,1.0,6.0,75,0.00,,---,0.00,VWS V14.01,2013-10-24 14:47:00,
2013-10-24 09:50:00,39.0,31.4,30.46,ENE,57,2.0,7.0,74,0.00,,---,0.00,VWS V14.01,2013-10-24 14:50:00,
2013-10-24 09:52:00,39.1,31.5,30.46,NE,46,0.0,6.0,74,0.00,,---,0.00,VWS V14.01,2013-10-24 14:52:00,
2013-10-24 09:57:00,39.5,31.6,30.46,NE,51,5.0,6.0,73,0.00,,---,0.00,VWS V14.01,2013-10-24 14:57:00,
2013-10-24 10:00:00,39.6,31.3,30.46,NE,37,1.0,11.0,72,0.00,,---,0.00,VWS V14.01,2013-10-24 15:00:00,
2013-10-24 10:02:00,39.7,31.1,30.46,NE,43,3.0,7.0,71,0.00,,---,0.00,VWS V14.01,2013-10-24 15:02:00,
2013-10-24 10:07:00,40.0,31.0,30.46,ENE,77,1.0,7.0,70,0.00,,---,0.00,VWS V14.01,2013-10-24 15:07:00,
2013-10-24 10:10:00,40.1,31.1,30.46,NNE,32,5.0,7.0,70,0.00,,---,0.00,VWS V14.01,2013-10-24 15:10:00,
2013-10-24 10:12:00,40.2,31.2,30.46,East,89,3.0,6.0,70,0.00,,---,0.00,VWS V14.01,2013-10-24 15:12:00,
2013-10-24 10:17:00,40.4,30.7,30.47,WSW,247,0.0,8.0,68,0.00,,---,0.00,VWS V14.01,2013-10-24 15:17:00,
2013-10-24 10:20:00,40.6,30.9,30.47,East,79,2.0,8.0,68,0.00,,---,0.00,VWS V14.01,2013-10-24 15:20:00,
2013-10-24 10:22:00,40.7,30.6,30.47,West,269,2.0,8.0,67,0.00,,---,0.00,VWS V14.01,2013-10-24 15:22:00,
2013-10-24 10:27:00,41.0,29.8,30.47,NW,315,0.0,11.0,64,0.00,,---,0.00,VWS V14.01,2013-10-24 15:27:00,
2013-10-24 10:30:00,41.1,29.9,30.47,NNE,29,5.0,11.0,64,0.00,,---,0.00,VWS V14.01,2013-10-24 15:30:00,
2013-10-24 10:32:00,41.3,29.7,30.47,ENE,59,3.0,13.0,63,0.00,,---,0.00,VWS V14.01,2013-10-24 15:32:00,
2013-10-24 10:37:00,41.6,30.3,30.47,NNW,332,1.0,13.0,64,0.00,,---,0.00,VWS V14.01,2013-10-24 15:37:00,
2013-10-24 10:40:00,41.8,30.5,30.47,WNW,292,2.0,13.0,64,0.00,,---,0.00,VWS V14.01,2013-10-24 15:40:00,
2013-10-24 10:42:00,42.0,30.3,30.47,West,260,1.0,5.0,63,0.00,,---,0.00,VWS V14.01,2013-10-24 15:42:00,
2013-10-24 10:47:00,42.3,30.6,30.47,WNW,283,0.0,8.0,63,0.00,,---,0.00,VWS V14.01,2013-10-24 15:47:00,
2013-10-24 10:50:00,42.4,30.3,30.47,NW,305,4.0,8.0,62,0.00,,---,0.00,VWS V14.01,2013-10-24 15:50:00,
2013-10-24 10:52:00,42.4,29.9,30.47,NW,313,4.0,7.0,61,0.00,,---,0.00,VWS V14.01,2013-10-24 15:52:00,
2013-10-24 10:57:00,42.7,30.2,30.48,West,267,4.0,7.0,61,0.00,,---,0.00,VWS V14.01,2013-10-24 15:57:00,
2013-10-24 11:00:00,42.8,30.3,30.47,West,281,2.0,7.0,61,0.00,,---,0.00,VWS V14.01,2013-10-24 16:00:00,
2013-10-24 11:02:00,42.9,30.0,30.47,NE,38,2.0,8.0,60,0.00,,---,0.00,VWS V14.01,2013-10-24 16:02:00,
2013-10-24 11:07:00,43.1,29.8,30.48,East,84,2.0,8.0,59,0.00,,---,0.00,VWS V14.01,2013-10-24 16:07:00,
2013-10-24 11:10:00,43.2,29.9,30.48,NE,48,4.0,8.0,59,0.00,,---,0.00,VWS V14.01,2013-10-24 16:10:00,
2013-10-24 11:12:00,43.3,30.0,30.48,West,281,2.0,9.0,59,0.00,,---,0.00,VWS V14.01,2013-10-24 16:12:00,
2013-10-24 11:17:00,43.5,29.7,30.48,West,268,4.0,10.0,58,0.00,,---,0.00,VWS V14.01,2013-10-24 16:17:00,
2013-10-24 11:20:00,43.6,30.2,30.48,WNW,297,4.0,12.0,59,0.00,,---,0.00,VWS V14.01,2013-10-24 16:20:00,
2013-10-24 11:22:00,43.7,30.3,30.48,NW,307,1.0,8.0,59,0.00,,---,0.00,VWS V14.01,2013-10-24 16:22:00,
2013-10-24 11:27:00,43.8,30.0,30.47,West,274,1.0,8.0,58,0.00,,---,0.00,VWS V14.01,2013-10-24 16:27:00,
2013-10-24 11:30:00,43.9,29.7,30.48,West,277,0.0,8.0,57,0.00,,---,0.00,VWS V14.01,2013-10-24 16:30:00,
2013-10-24 11:32:00,44.0,29.8,30.48,WNW,286,4.0,6.0,57,0.00,,---,0.00,VWS V14.01,2013-10-24 16:32:00,
2013-10-24 11:37:00,44.2,30.4,30.48,NW,305,1.0,6.0,58,0.00,,---,0.00,VWS V14.01,2013-10-24 16:37:00,
2013-10-24 11:40:00,44.4,29.3,30.48,WSW,250,3.0,7.0,55,0.00,,---,0.00,VWS V14.01,2013-10-24 16:40:00,
2013-10-24 11:42:00,44.5,29.8,30.48,NNW,334,2.0,6.0,56,0.00,,---,0.00,VWS V14.01,2013-10-24 16:42:00,
2013-10-24 11:47:00,44.7,30.0,30.48,ESE,115,0.0,6.0,56,0.00,,---,0.00,VWS V14.01,2013-10-24 16:47:00,
2013-10-24 11:50:00,44.9,29.7,30.48,NNE,30,0.0,8.0,55,0.00,,---,0.00,VWS V14.01,2013-10-24 16:50:00,
2013-10-24 11:52:00,45.1,29.9,30.48,NE,37,0.0,7.0,55,0.00,,---,0.00,VWS V14.01,2013-10-24 16:52:00,
2013-10-24 11:57:00,45.4,30.2,30.48,West,277,1.0,7.0,55,0.00,,---,0.00,VWS V14.01,2013-10-24 16:57:00,
2013-10-24 12:00:00,45.6,29.5,30.48,NW,325,1.0,7.0,53,0.00,,---,0.00,VWS V14.01,2013-10-24 17:00:00,
2013-10-24 12:02:00,45.8,29.7,30.48,NNW,343,4.0,6.0,53,0.00,,---,0.00,VWS V14.01,2013-10-24 17:02:00,
2013-10-24 12:07:00,45.8,28.7,30.48,NE,52,4.0,9.0,51,0.00,,---,0.00,VWS V14.01,2013-10-24 17:07:00,
2013-10-24 12:10:00,45.8,29.2,30.48,West,275,1.0,9.0,52,0.00,,---,0.00,VWS V14.01,2013-10-24 17:10:00,
2013-10-24 12:12:00,45.9,29.3,30.48,North,5,3.0,5.0,52,0.00,,---,0.00,VWS V14.01,2013-10-24 17:12:00,
2013-10-24 12:16:00,46.1,28.5,30.48,NW,305,4.0,7.0,50,0.00,,---,0.00,VWS V14.01,2013-10-24 17:16:00,
2013-10-24 12:20:00,46.1,28.5,30.48,West,264,3.0,7.0,50,0.00,,---,0.00,VWS V14.01,2013-10-24 17:20:00,
2013-10-24 12:21:00,46.1,28.5,30.48,WNW,301,2.0,5.0,50,0.00,,---,0.00,VWS V14.01,2013-10-24 17:21:00,
2013-10-24 12:26:00,46.2,29.1,30.48,East,86,0.0,6.0,51,0.00,,---,0.00,VWS V14.01,2013-10-24 17:26:00,
2013-10-24 12:30:00,46.4,28.8,30.48,ENE,61,0.0,6.0,50,0.00,,---,0.00,VWS V14.01,2013-10-24 17:30:00,
2013-10-24 12:31:00,46.5,28.9,30.48,WNW,294,0.0,1.0,50,0.00,,---,0.00,VWS V14.01,2013-10-24 17:31:00,
2013-10-24 12:36:00,46.7,28.1,30.48,ENE,63,0.0,8.0,48,0.00,,---,0.00,VWS V14.01,2013-10-24 17:36:00,
2013-10-24 12:40:00,46.8,28.7,30.48,WNW,284,2.0,8.0,49,0.00,,---,0.00,VWS V14.01,2013-10-24 17:40:00,
2013-10-24 12:41:00,46.9,28.2,30.48,West,275,1.0,6.0,48,0.00,,---,0.00,VWS V14.01,2013-10-24 17:41:00,
2013-10-24 12:46:00,47.0,27.8,30.48,WNW,291,5.0,8.0,47,0.00,,---,0.00,VWS V14.01,2013-10-24 17:46:00,
2013-10-24 12:50:00,47.1,27.9,30.48,NE,44,2.0,8.0,47,0.00,,---,0.00,VWS V14.01,2013-10-24 17:50:00,
2013-10-24 12:51:00,47.2,28.5,30.48,NE,40,5.0,6.0,48,0.00,,---,0.00,VWS V14.01,2013-10-24 17:51:00,
2013-10-24 12:56:00,47.3,28.1,30.48,West,265,2.0,7.0,47,0.00,,---,0.00,VWS V14.01,2013-10-24 17:56:00,
2013-10-24 13:00:00,47.4,27.7,30.48,ENE,68,1.0,7.0,46,0.00,,---,0.00,VWS V14.01,2013-10-24 18:00:00,
2013-10-24 13:01:00,47.5,27.8,30.48,ENE,66,2.0,5.0,46,0.00,,---,0.00,VWS V14.01,2013-10-24 18:01:00,
2013-10-24 13:06:00,47.6,27.9,30.48,WNW,286,2.0,8.0,46,0.00,,---,0.00,VWS V14.01,2013-10-24 18:06:00,
2013-10-24 13:10:00,47.7,27.4,30.47,West,273,4.0,8.0,45,0.00,,---,0.00,VWS V14.01,2013-10-24 18:10:00,
2013-10-24 13:11:00,47.7,28.0,30.47,WNW,286,4.0,5.0,46,0.00,,---,0.00,VWS V14.01,2013-10-24 18:11:00,
2013-10-24 13:16:00,47.7,28.0,30.47,NW,305,2.0,11.0,46,0.00,,---,0.00,VWS V14.01,2013-10-24 18:16:00,
2013-10-24 13:20:00,47.7,28.0,30.46,SSW,194,5.0,11.0,46,0.00,,---,0.00,VWS V14.01,2013-10-24 18:20:00,
2013-10-24 13:21:00,47.8,28.0,30.46,West,271,2.0,5.0,46,0.00,,---,0.00,VWS V14.01,2013-10-24 18:21:00,
2013-10-24 13:26:00,48.1,28.3,30.46,NE,46,1.0,5.0,46,0.00,,---,0.00,VWS V14.01,2013-10-24 18:26:00,
2013-10-24 13:30:00,48.2,28.4,30.46,NNE,16,2.0,7.0,46,0.00,,---,0.00,VWS V14.01,2013-10-24 18:30:00,
2013-10-24 13:31:00,48.2,27.9,30.46,West,275,5.0,6.0,45,0.00,,---,0.00,VWS V14.01,2013-10-24 18:31:00,
2013-10-24 13:36:00,48.3,28.0,30.46,NE,49,3.0,7.0,45,0.00,,---,0.00,VWS V14.01,2013-10-24 18:36:00,
2013-10-24 13:40:00,48.4,28.1,30.46,West,274,2.0,7.0,45,0.00,,---,0.00,VWS V14.01,2013-10-24 18:40:00,
2013-10-24 13:41:00,48.5,28.1,30.46,NE,34,4.0,7.0,45,0.00,,---,0.00,VWS V14.01,2013-10-24 18:41:00,
2013-10-24 13:46:00,48.6,28.2,30.46,WNW,294,1.0,7.0,45,0.00,,---,0.00,VWS V14.01,2013-10-24 18:46:00,
2013-10-24 13:50:00,48.7,28.3,30.46,ENE,78,4.0,7.0,45,0.00,,---,0.00,VWS V14.01,2013-10-24 18:50:00,
2013-10-24 13:51:00,48.8,28.4,30.46,NNW,336,1.0,6.0,45,0.00,,---,0.00,VWS V14.01,2013-10-24 18:51:00,
2013-10-24 13:56:00,49.0,27.5,30.46,WNW,291,1.0,6.0,43,0.00,,---,0.00,VWS V14.01,2013-10-24 18:56:00,
2013-10-24 14:00:00,49.0,27.5,30.46,West,265,1.0,8.0,43,0.00,,---,0.00,VWS V14.01,2013-10-24 19:00:00,
2013-10-24 14:01:00,49.0,27.5,30.46,WNW,294,5.0,9.0,43,0.00,,---,0.00,VWS V14.01,2013-10-24 19:01:00,
2013-10-24 14:06:00,49.0,27.5,30.46,WNW,299,2.0,9.0,43,0.00,,---,0.00,VWS V14.01,2013-10-24 19:06:00,
2013-10-24 14:10:00,49.0,27.5,30.46,WNW,297,0.0,9.0,43,0.00,,---,0.00,VWS V14.01,2013-10-24 19:10:00,
2013-10-24 14:11:00,49.0,27.5,30.45,ENE,71,4.0,6.0,43,0.00,,---,0.00,VWS V14.01,2013-10-24 19:11:00,
2013-10-24 14:17:00,49.2,28.2,30.45,NNW,348,1.0,6.0,44,0.00,,---,0.00,VWS V14.01,2013-10-24 19:17:00,
2013-10-24 14:20:00,49.5,28.5,30.45,WNW,285,5.0,10.0,44,0.00,,---,0.00,VWS V14.01,2013-10-24 19:20:00,
2013-10-24 14:22:00,49.5,28.5,30.45,WNW,284,1.0,6.0,44,0.00,,---,0.00,VWS V14.01,2013-10-24 19:22:00,
2013-10-24 14:27:00,49.6,28.6,30.45,West,269,8.0,8.0,44,0.00,,---,0.00,VWS V14.01,2013-10-24 19:27:00,
2013-10-24 14:30:00,49.6,28.0,30.45,West,269,6.0,9.0,43,0.00,,---,0.00,VWS V14.01,2013-10-24 19:30:00,
2013-10-24 14:32:00,49.5,28.0,30.45,NE,44,2.0,6.0,43,0.00,,---,0.00,VWS V14.01,2013-10-24 19:32:00,
2013-10-24 14:37:00,49.4,28.4,30.45,ENE,68,1.0,7.0,44,0.00,,---,0.00,VWS V14.01,2013-10-24 19:37:00,
2013-10-24 14:40:00,49.4,28.4,30.45,NNW,329,4.0,7.0,44,0.00,,---,0.00,VWS V14.01,2013-10-24 19:40:00,
2013-10-24 14:42:00,49.4,29.0,30.45,ENE,65,2.0,5.0,45,0.00,,---,0.00,VWS V14.01,2013-10-24 19:42:00,
2013-10-24 14:47:00,49.3,28.9,30.45,WNW,291,5.0,10.0,45,0.00,,---,0.00,VWS V14.01,2013-10-24 19:47:00,
2013-10-24 14:50:00,49.4,29.0,30.45,NE,39,1.0,12.0,45,0.00,,---,0.00,VWS V14.01,2013-10-24 19:50:00,
2013-10-24 14:52:00,49.4,29.0,30.45,NNE,17,0.0,7.0,45,0.00,,---,0.00,VWS V14.01,2013-10-24 19:52:00,
2013-10-24 14:57:00,49.5,28.5,30.45,NNW,338,1.0,7.0,44,0.00,,---,0.00,VWS V14.01,2013-10-24 19:57:00,
2013-10-24 15:00:00,49.5,28.5,30.45,West,273,0.0,7.0,44,0.00,,---,0.00,VWS V14.01,2013-10-24 20:00:00,
2013-10-24 15:02:00,49.5,28.5,30.45,SW,217,1.0,7.0,44,0.00,,---,0.00,VWS V14.01,2013-10-24 20:02:00,
2013-10-24 15:07:00,49.6,29.7,30.45,NE,46,1.0,7.0,46,0.00,,---,0.00,VWS V14.01,2013-10-24 20:07:00,
2013-10-24 15:10:00,49.6,29.1,30.45,West,280,2.0,8.0,45,0.00,,---,0.00,VWS V14.01,2013-10-24 20:10:00,
2013-10-24 15:12:00,49.6,29.7,30.45,SE,129,0.0,6.0,46,0.00,,---,0.00,VWS V14.01,2013-10-24 20:12:00,
2013-10-24 15:17:00,49.6,29.7,30.45,ENE,66,3.0,7.0,46,0.00,,---,0.00,VWS V14.01,2013-10-24 20:17:00,
2013-10-24 15:20:00,49.6,28.6,30.45,NE,51,3.0,7.0,44,0.00,,---,0.00,VWS V14.01,2013-10-24 20:20:00,
2013-10-24 15:22:00,49.5,28.5,30.45,ENE,69,0.0,4.0,44,0.00,,---,0.00,VWS V14.01,2013-10-24 20:22:00,
2013-10-24 15:27:00,49.3,29.4,30.45,NW,307,2.0,4.0,46,0.00,,---,0.00,VWS V14.01,2013-10-24 20:27:00,
2013-10-24 15:30:00,49.3,28.9,30.44,NE,46,4.0,6.0,45,0.00,,---,0.00,VWS V14.01,2013-10-24 20:30:00,
2013-10-24 15:32:00,49.3,28.9,30.44,NE,34,4.0,12.0,45,0.00,,---,0.00,VWS V14.01,2013-10-24 20:32:00,
2013-10-24 15:37:00,49.2,29.3,30.44,NE,42,2.0,12.0,46,0.00,,---,0.00,VWS V14.01,2013-10-24 20:37:00,
2013-10-24 15:40:00,49.1,29.2,30.44,ESE,115,1.0,12.0,46,0.00,,---,0.00,VWS V14.01,2013-10-24 20:40:00,
2013-10-24 15:42:00,49.2,29.3,30.44,NNW,327,1.0,6.0,46,0.00,,---,0.00,VWS V14.01,2013-10-24 20:42:00,
2013-10-24 15:47:00,49.2,28.8,30.44,NE,49,4.0,7.0,45,0.00,,---,0.00,VWS V14.01,2013-10-24 20:47:00,
2013-10-24 15:50:00,49.2,28.8,30.44,NNE,19,1.0,8.0,45,0.00,,---,0.00,VWS V14.01,2013-10-24 20:50:00,
2013-10-24 15:52:00,49.2,29.3,30.44,NW,323,2.0,6.0,46,0.00,,---,0.00,VWS V14.01,2013-10-24 20:52:00,
2013-10-24 15:57:00,49.2,28.2,30.44,ENE,64,0.0,8.0,44,0.00,,---,0.00,VWS V14.01,2013-10-24 20:57:00,
2013-10-24 16:00:00,49.1,28.1,30.44,WNW,286,2.0,8.0,44,0.00,,---,0.00,VWS V14.01,2013-10-24 21:00:00,
2013-10-24 16:02:00,49.0,28.0,30.44,WSW,251,4.0,7.0,44,0.00,,---,0.00,VWS V14.01,2013-10-24 21:02:00,
2013-10-24 16:07:00,49.0,28.6,30.44,NE,53,2.0,7.0,45,0.00,,---,0.00,VWS V14.01,2013-10-24 21:07:00,
2013-10-24 16:10:00,49.0,28.6,30.44,NE,43,1.0,7.0,45,0.00,,---,0.00,VWS V14.01,2013-10-24 21:10:00,
2013-10-24 16:12:00,49.0,28.6,30.44,ESE,119,2.0,7.0,45,0.00,,---,0.00,VWS V14.01,2013-10-24 21:12:00,
2013-10-24 16:17:00,49.0,29.1,30.44,NE,53,3.0,7.0,46,0.00,,---,0.00,VWS V14.01,2013-10-24 21:17:00,
2013-10-24 16:20:00,49.0,28.6,30.44,NW,319,0.0,7.0,45,0.00,,---,0.00,VWS V14.01,2013-10-24 21:20:00,
2013-10-24 16:22:00,49.0,28.6,30.44,NW,319,1.0,2.0,45,0.00,,---,0.00,VWS V14.01,2013-10-24 21:22:00,
2013-10-24 16:27:00,48.9,28.5,30.44,NE,35,3.0,5.0,45,0.00,,---,0.00,VWS V14.01,2013-10-24 21:27:00,
2013-10-24 16:30:00,48.9,28.5,30.44,West,263,3.0,10.0,45,0.00,,---,0.00,VWS V14.01,2013-10-24 21:30:00,
2013-10-24 16:32:00,48.8,28.4,30.44,ESE,117,2.0,6.0,45,0.00,,---,0.00,VWS V14.01,2013-10-24 21:32:00,
2013-10-24 16:37:00,48.7,28.3,30.44,ENE,61,1.0,6.0,45,0.00,,---,0.00,VWS V14.01,2013-10-24 21:37:00,
2013-10-24 16:40:00,48.6,28.2,30.44,West,281,2.0,6.0,45,0.00,,---,0.00,VWS V14.01,2013-10-24 21:40:00,
2013-10-24 16:42:00,48.6,28.2,30.44,West,264,2.0,6.0,45,0.00,,---,0.00,VWS V14.01,2013-10-24 21:42:00,
2013-10-24 16:47:00,48.5,28.7,30.44,NW,313,1.0,6.0,46,0.00,,---,0.00,VWS V14.01,2013-10-24 21:47:00,
2013-10-24 16:50:00,48.5,29.2,30.44,East,96,1.0,6.0,47,0.00,,---,0.00,VWS V14.01,2013-10-24 21:50:00,
2013-10-24 16:52:00,48.5,29.2,30.44,East,96,0.0,1.0,47,0.00,,---,0.00,VWS V14.01,2013-10-24 21:52:00,
2013-10-24 16:57:00,48.5,29.2,30.44,ENE,57,1.0,4.0,47,0.00,,---,0.00,VWS V14.01,2013-10-24 21:57:00,
2013-10-24 17:00:00,48.4,28.6,30.44,WNW,303,1.0,5.0,46,0.00,,---,0.00,VWS V14.01,2013-10-24 22:00:00,
2013-10-24 17:02:00,48.4,28.0,30.44,West,265,1.0,11.0,45,0.00,,---,0.00,VWS V14.01,2013-10-24 22:02:00,
2013-10-24 17:07:00,48.3,28.0,30.44,ENE,64,2.0,11.0,45,0.00,,---,0.00,VWS V14.01,2013-10-24 22:07:00,
2013-10-24 17:10:00,48.2,27.9,30.44,SSE,153,0.0,11.0,45,0.00,,---,0.00,VWS V14.01,2013-10-24 22:10:00,
2013-10-24 17:12:00,48.2,27.9,30.44,NNE,22,2.0,6.0,45,0.00,,---,0.00,VWS V14.01,2013-10-24 22:12:00,
2013-10-24 17:17:00,48.1,27.8,30.44,ENE,58,2.0,6.0,45,0.00,,---,0.00,VWS V14.01,2013-10-24 22:17:00,
2013-10-24 17:20:00,48.0,28.2,30.44,NNE,20,0.0,6.0,46,0.00,,---,0.00,VWS V14.01,2013-10-24 22:20:00,
2013-10-24 17:22:00,48.0,28.2,30.44,NNE,20,0.0,2.0,46,0.00,,---,0.00,VWS V14.01,2013-10-24 22:22:00,
2013-10-24 17:27:00,47.9,28.1,30.44,NE,34,1.0,4.0,46,0.00,,---,0.00,VWS V14.01,2013-10-24 22:27:00,
2013-10-24 17:30:00,47.9,28.1,30.44,NW,326,1.0,4.0,46,0.00,,---,0.00,VWS V14.01,2013-10-24 22:30:00,
2013-10-24 17:32:00,47.9,28.7,30.44,NE,53,2.0,6.0,47,0.00,,---,0.00,VWS V14.01,2013-10-24 22:32:00,
2013-10-24 17:37:00,47.8,28.6,30.44,WNW,294,1.0,6.0,47,0.00,,---,0.00,VWS V14.01,2013-10-24 22:37:00,
2013-10-24 17:40:00,48.6,28.2,30.44,West,281,2.0,6.0,45,0.00,,---,0.00,VWS V14.01,2013-10-24 22:40:00,
2013-10-24 17:42:00,47.7,28.5,30.45,East,88,1.0,3.0,47,0.00,,---,0.00,VWS V14.01,2013-10-24 22:42:00,
2013-10-24 17:47:00,47.6,27.9,30.45,West,276,0.0,5.0,46,0.00,,---,0.00,VWS V14.01,2013-10-24 22:47:00,
2013-10-24 17:50:00,47.5,27.2,30.45,ENE,62,1.0,5.0,45,0.00,,---,0.00,VWS V14.01,2013-10-24 22:50:00,
2013-10-24 17:52:00,47.5,27.8,30.45,ENE,62,0.0,2.0,46,0.00,,---,0.00,VWS V14.01,2013-10-24 22:52:00,
2013-10-24 17:57:00,47.4,27.7,30.45,NE,56,1.0,2.0,46,0.00,,---,0.00,VWS V14.01,2013-10-24 22:57:00,
2013-10-24 18:00:00,47.3,27.6,30.45,NE,54,0.0,4.0,46,0.00,,---,0.00,VWS V14.01,2013-10-24 23:00:00,
2013-10-24 18:02:00,47.2,28.0,30.45,NE,54,0.0,1.0,47,0.00,,---,0.00,VWS V14.01,2013-10-24 23:02:00,
2013-10-24 18:07:00,47.1,27.9,30.45,NE,54,0.0,1.0,47,0.00,,---,0.00,VWS V14.01,2013-10-24 23:07:00,
2013-10-24 18:10:00,48.2,27.9,30.44,SSE,153,0.0,11.0,45,0.00,,---,0.00,VWS V14.01,2013-10-24 23:10:00,
2013-10-24 18:12:00,46.9,29.2,30.45,NE,54,0.0,0.0,50,0.00,,---,0.00,VWS V14.01,2013-10-24 23:12:00,
2013-10-24 18:17:00,46.8,29.2,30.45,NE,54,0.0,0.0,50,0.00,,---,0.00,VWS V14.01,2013-10-24 23:17:00,
2013-10-24 18:20:00,46.7,30.0,30.45,NE,54,0.0,0.0,52,0.00,,---,0.00,VWS V14.01,2013-10-24 23:20:00,
2013-10-24 18:22:00,46.5,29.4,30.45,NE,54,0.0,0.0,51,0.00,,---,0.00,VWS V14.01,2013-10-24 23:22:00,
2013-10-24 18:27:00,46.3,29.2,30.45,NE,54,0.0,0.0,51,0.00,,---,0.00,VWS V14.01,2013-10-24 23:27:00,
2013-10-24 18:30:00,46.1,29.5,30.46,NE,54,0.0,0.0,52,0.00,,---,0.00,VWS V14.01,2013-10-24 23:30:00,
2013-10-24 18:32:00,46.0,29.4,30.45,NE,54,0.0,0.0,52,0.00,,---,0.00,VWS V14.01,2013-10-24 23:32:00,
2013-10-24 18:37:00,45.7,30.0,30.46,NE,54,0.0,0.0,54,0.00,,---,0.00,VWS V14.01,2013-10-24 23:37:00,
2013-10-24 18:40:00,45.5,29.8,30.46,NE,54,0.0,0.0,54,0.00,,---,0.00,VWS V14.01,2013-10-24 23:40:00,
2013-10-24 18:42:00,45.3,30.1,30.46,NE,54,0.0,0.0,55,0.00,,---,0.00,VWS V14.01,2013-10-24 23:42:00,
2013-10-24 18:47:00,44.9,30.6,30.46,NE,54,0.0,0.0,57,0.00,,---,0.00,VWS V14.01,2013-10-24 23:47:00,
2013-10-24 18:50:00,47.5,27.2,30.45,ENE,62,1.0,5.0,45,0.00,,---,0.00,VWS V14.01,2013-10-24 23:50:00,
2013-10-24 18:52:00,44.5,31.1,30.46,NE,54,0.0,0.0,59,0.00,,---,0.00,VWS V14.01,2013-10-24 23:52:00,
2013-10-24 18:57:00,44.1,31.1,30.46,NE,54,0.0,0.0,60,0.00,,---,0.00,VWS V14.01,2013-10-24 23:57:00,
2013-10-24 19:00:00,47.3,27.6,30.45,NE,54,0.0,4.0,46,0.00,,---,0.00,VWS V14.01,2013-10-25 00:00:00,
2013-10-24 19:02:00,43.7,30.7,30.46,NE,54,0.0,0.0,60,0.00,,---,0.00,VWS V14.01,2013-10-25 00:02:00,
2013-10-24 19:07:00,43.2,30.7,30.47,NE,54,0.0,0.0,61,0.00,,---,0.00,VWS V14.01,2013-10-25 00:07:00,
2013-10-24 19:10:00,43.0,30.5,30.47,NE,54,0.0,0.0,61,0.00,,---,0.00,VWS V14.01,2013-10-25 00:10:00,
2013-10-24 19:12:00,42.9,30.8,30.46,NE,54,0.0,0.0,62,0.00,,---,0.00,VWS V14.01,2013-10-25 00:12:00,
2013-10-24 19:17:00,42.5,30.8,30.46,NE,54,0.0,0.0,63,0.00,,---,0.00,VWS V14.01,2013-10-25 00:17:00,
2013-10-24 19:20:00,46.7,30.0,30.45,NE,54,0.0,0.0,52,0.00,,---,0.00,VWS V14.01,2013-10-25 00:20:00,
2013-10-24 19:22:00,42.1,30.8,30.47,NE,54,0.0,0.0,64,0.00,,---,0.00,VWS V14.01,2013-10-25 00:22:00,
2013-10-24 19:27:00,41.7,30.8,30.47,NE,54,0.0,0.0,65,0.00,,---,0.00,VWS V14.01,2013-10-25 00:27:00,
2013-10-24 19:30:00,41.6,30.7,30.47,NE,54,0.0,0.0,65,0.00,,---,0.00,VWS V14.01,2013-10-25 00:30:00,
2013-10-24 19:32:00,41.4,30.5,30.47,NE,54,0.0,0.0,65,0.00,,---,0.00,VWS V14.01,2013-10-25 00:32:00,
2013-10-24 19:37:00,41.0,30.5,30.47,NE,54,0.0,0.0,66,0.00,,---,0.00,VWS V14.01,2013-10-25 00:37:00,
2013-10-24 19:40:00,40.8,30.3,30.47,NE,54,0.0,0.0,66,0.00,,---,0.00,VWS V14.01,2013-10-25 00:40:00,
2013-10-24 19:42:00,40.6,30.5,30.47,NE,54,0.0,0.0,67,0.00,,---,0.00,VWS V14.01,2013-10-25 00:42:00,
2013-10-24 19:47:00,40.4,30.7,30.47,NE,54,0.0,0.0,68,0.00,,---,0.00,VWS V14.01,2013-10-25 00:47:00,
2013-10-24 19:50:00,40.2,30.5,30.47,NE,54,0.0,0.0,68,0.00,,---,0.00,VWS V14.01,2013-10-25 00:50:00,
2013-10-24 19:52:00,40.1,30.4,30.47,NE,54,0.0,0.0,68,0.00,,---,0.00,VWS V14.01,2013-10-25 00:52:00,
2013-10-24 19:57:00,39.8,30.5,30.48,NE,54,0.0,0.0,69,0.00,,---,0.00,VWS V14.01,2013-10-25 00:57:00,
2013-10-24 20:00:00,39.7,30.7,30.47,NE,54,0.0,0.0,70,0.00,,---,0.00,VWS V14.01,2013-10-25 01:00:00,
2013-10-24 20:02:00,39.5,30.5,30.47,NE,54,0.0,0.0,70,0.00,,---,0.00,VWS V14.01,2013-10-25 01:02:00,
2013-10-24 20:07:00,39.2,30.2,30.47,NE,54,0.0,0.0,70,0.00,,---,0.00,VWS V14.01,2013-10-25 01:07:00,
2013-10-24 20:10:00,39.1,30.2,30.47,NE,54,0.0,0.0,70,0.00,,---,0.00,VWS V14.01,2013-10-25 01:10:00,
2013-10-24 20:12:00,38.9,30.0,30.48,NE,54,0.0,0.0,70,0.00,,---,0.00,VWS V14.01,2013-10-25 01:12:00,
2013-10-24 20:17:00,38.7,29.8,30.48,NE,54,0.0,0.0,70,0.00,,---,0.00,VWS V14.01,2013-10-25 01:17:00,
2013-10-24 20:20:00,38.5,30.3,30.48,NE,54,0.0,0.0,72,0.00,,---,0.00,VWS V14.01,2013-10-25 01:20:00,
2013-10-24 20:22:00,38.4,30.2,30.48,NE,54,0.0,0.0,72,0.00,,---,0.00,VWS V14.01,2013-10-25 01:22:00,
2013-10-24 20:27:00,38.3,30.4,30.48,NE,54,0.0,0.0,73,0.00,,---,0.00,VWS V14.01,2013-10-25 01:27:00,
2013-10-24 20:30:00,38.1,30.2,30.48,NE,54,0.0,0.0,73,0.00,,---,0.00,VWS V14.01,2013-10-25 01:30:00,
2013-10-24 20:32:00,38.1,30.2,30.48,NE,54,0.0,0.0,73,0.00,,---,0.00,VWS V14.01,2013-10-25 01:32:00,
2013-10-24 20:37:00,37.9,30.0,30.49,NE,54,0.0,0.0,73,0.00,,---,0.00,VWS V14.01,2013-10-25 01:37:00,
2013-10-24 20:40:00,37.8,29.9,30.49,NE,54,0.0,0.0,73,0.00,,---,0.00,VWS V14.01,2013-10-25 01:40:00,
2013-10-24 20:42:00,37.7,29.8,30.49,NE,54,0.0,0.0,73,0.00,,---,0.00,VWS V14.01,2013-10-25 01:42:00,
2013-10-24 20:47:00,37.5,29.6,30.49,NE,54,0.0,0.0,73,0.00,,---,0.00,VWS V14.01,2013-10-25 01:47:00,
2013-10-24 20:50:00,37.3,29.8,30.49,NE,54,0.0,0.0,74,0.00,,---,0.00,VWS V14.01,2013-10-25 01:50:00,
2013-10-24 20:52:00,37.3,30.1,30.49,NE,54,0.0,0.0,75,0.00,,---,0.00,VWS V14.01,2013-10-25 01:52:00,
2013-10-24 20:57:00,37.1,29.9,30.49,NE,54,0.0,0.0,75,0.00,,---,0.00,VWS V14.01,2013-10-25 01:57:00,
2013-10-24 21:00:00,37.0,29.8,30.49,NE,54,0.0,0.0,75,0.00,,---,0.00,VWS V14.01,2013-10-25 02:00:00,
2013-10-24 21:02:00,36.9,29.7,30.49,NE,54,0.0,0.0,75,0.00,,---,0.00,VWS V14.01,2013-10-25 02:02:00,
2013-10-24 21:07:00,36.8,29.6,30.49,NE,54,0.0,0.0,75,0.00,,---,0.00,VWS V14.01,2013-10-25 02:07:00,
2013-10-24 21:10:00,36.6,29.4,30.50,NE,54,0.0,0.0,75,0.00,,---,0.00,VWS V14.01,2013-10-25 02:10:00,
2013-10-24 21:12:00,36.5,29.3,30.50,NE,54,0.0,0.0,75,0.00,,---,0.00,VWS V14.01,2013-10-25 02:12:00,
2013-10-24 21:17:00,36.3,29.5,30.50,NE,54,0.0,0.0,76,0.00,,---,0.00,VWS V14.01,2013-10-25 02:17:00,
2013-10-24 21:20:00,36.2,29.4,30.50,NE,54,0.0,0.0,76,0.00,,---,0.00,VWS V14.01,2013-10-25 02:20:00,
2013-10-24 21:22:00,36.1,29.6,30.50,NE,54,0.0,0.0,77,0.00,,---,0.00,VWS V14.01,2013-10-25 02:22:00,
2013-10-24 21:27:00,36.0,29.5,30.50,NE,54,0.0,0.0,77,0.00,,---,0.00,VWS V14.01,2013-10-25 02:27:00,
2013-10-24 21:30:00,35.9,29.7,30.50,NE,54,0.0,0.0,78,0.00,,---,0.00,VWS V14.01,2013-10-25 02:30:00,
2013-10-24 21:32:00,35.8,29.6,30.50,NE,54,0.0,0.0,78,0.00,,---,0.00,VWS V14.01,2013-10-25 02:32:00,
2013-10-24 21:37:00,35.7,29.5,30.50,NE,54,0.0,0.0,78,0.00,,---,0.00,VWS V14.01,2013-10-25 02:37:00,
2013-10-24 21:40:00,35.6,29.4,30.50,NE,54,0.0,0.0,78,0.00,,---,0.00,VWS V14.01,2013-10-25 02:40:00,
2013-10-24 21:42:00,35.5,29.3,30.50,NE,54,0.0,0.0,78,0.00,,---,0.00,VWS V14.01,2013-10-25 02:42:00,
2013-10-24 21:47:00,35.5,29.6,30.50,NE,54,0.0,0.0,79,0.00,,---,0.00,VWS V14.01,2013-10-25 02:47:00,
2013-10-24 21:50:00,35.4,29.5,30.50,NE,54,0.0,0.0,79,0.00,,---,0.00,VWS V14.01,2013-10-25 02:50:00,
2013-10-24 21:52:00,35.4,29.5,30.50,NE,54,0.0,0.0,79,0.00,,---,0.00,VWS V14.01,2013-10-25 02:52:00,
2013-10-24 21:57:00,35.3,29.5,30.50,NE,54,0.0,0.0,79,0.00,,---,0.00,VWS V14.01,2013-10-25 02:57:00,
2013-10-24 22:00:00,35.2,29.4,30.50,NE,54,0.0,0.0,79,0.00,,---,0.00,VWS V14.01,2013-10-25 03:00:00,
2013-10-24 22:02:00,35.2,29.4,30.50,NE,54,0.0,0.0,79,0.00,,---,0.00,VWS V14.01,2013-10-25 03:02:00,
2013-10-24 22:07:00,35.0,29.2,30.50,NE,54,0.0,0.0,79,0.00,,---,0.00,VWS V14.01,2013-10-25 03:07:00,
2013-10-24 22:10:00,34.9,29.4,30.50,NE,54,0.0,0.0,80,0.00,,---,0.00,VWS V14.01,2013-10-25 03:10:00,
2013-10-24 22:12:00,34.8,29.3,30.51,NE,54,0.0,0.0,80,0.00,,---,0.00,VWS V14.01,2013-10-25 03:12:00,
2013-10-24 22:17:00,34.7,29.2,30.51,NE,54,0.0,0.0,80,0.00,,---,0.00,VWS V14.01,2013-10-25 03:17:00,
2013-10-24 22:20:00,34.6,29.1,30.51,NE,54,0.0,0.0,80,0.00,,---,0.00,VWS V14.01,2013-10-25 03:20:00,
2013-10-24 22:22:00,34.4,28.6,30.51,NE,54,0.0,0.0,79,0.00,,---,0.00,VWS V14.01,2013-10-25 03:22:00,
2013-10-24 22:27:00,34.3,28.8,30.51,NE,54,0.0,0.0,80,0.00,,---,0.00,VWS V14.01,2013-10-25 03:27:00,
2013-10-24 22:30:00,34.3,28.8,30.51,NE,54,0.0,0.0,80,0.00,,---,0.00,VWS V14.01,2013-10-25 03:30:00,
2013-10-24 22:32:00,34.2,28.7,30.51,NE,54,0.0,0.0,80,0.00,,---,0.00,VWS V14.01,2013-10-25 03:32:00,
2013-10-24 22:37:00,34.1,28.9,30.51,NE,54,0.0,0.0,81,0.00,,---,0.00,VWS V14.01,2013-10-25 03:37:00,
2013-10-24 22:40:00,34.0,28.8,30.51,NE,54,0.0,0.0,81,0.00,,---,0.00,VWS V14.01,2013-10-25 03:40:00,
2013-10-24 22:42:00,33.9,28.7,30.51,NE,54,0.0,0.0,81,0.00,,---,0.00,VWS V14.01,2013-10-25 03:42:00,
2013-10-24 22:47:00,33.9,29.0,30.52,NE,54,0.0,0.0,82,0.00,,---,0.00,VWS V14.01,2013-10-25 03:47:00,
2013-10-24 22:50:00,33.9,29.0,30.52,NE,54,0.0,0.0,82,0.00,,---,0.00,VWS V14.01,2013-10-25 03:50:00,
2013-10-24 22:52:00,33.9,29.0,30.51,NE,54,0.0,0.0,82,0.00,,---,0.00,VWS V14.01,2013-10-25 03:52:00,
2013-10-24 22:57:00,33.9,29.0,30.51,NE,54,0.0,0.0,82,0.00,,---,0.00,VWS V14.01,2013-10-25 03:57:00,
2013-10-24 23:00:00,33.9,29.0,30.51,NE,54,0.0,0.0,82,0.00,,---,0.00,VWS V14.01,2013-10-25 04:00:00,
2013-10-24 23:01:00,33.8,28.9,30.52,NE,54,0.0,0.0,82,0.00,,---,0.00,VWS V14.01,2013-10-25 04:01:00,
2013-10-24 23:06:00,33.7,28.8,30.52,NE,54,0.0,0.0,82,0.00,,---,0.00,VWS V14.01,2013-10-25 04:06:00,
2013-10-24 23:10:00,33.6,28.7,30.51,NE,54,0.0,0.0,82,0.00,,---,0.00,VWS V14.01,2013-10-25 04:10:00,
2013-10-24 23:11:00,33.6,28.7,30.51,NE,54,0.0,0.0,82,0.00,,---,0.00,VWS V14.01,2013-10-25 04:11:00,
2013-10-24 23:16:00,33.6,29.0,30.52,NE,54,0.0,0.0,83,0.00,,---,0.00,VWS V14.01,2013-10-25 04:16:00,
2013-10-24 23:20:00,33.6,29.0,30.52,NE,54,0.0,0.0,83,0.00,,---,0.00,VWS V14.01,2013-10-25 04:20:00,
2013-10-24 23:21:00,33.6,29.0,30.52,NE,54,0.0,0.0,83,0.00,,---,0.00,VWS V14.01,2013-10-25 04:21:00,
2013-10-24 23:26:00,33.4,28.5,30.52,NE,54,0.0,0.0,82,0.00,,---,0.00,VWS V14.01,2013-10-25 04:26:00,
2013-10-24 23:30:00,33.3,28.4,30.52,NE,54,0.0,0.0,82,0.00,,---,0.00,VWS V14.01,2013-10-25 04:30:00,
2013-10-24 23:31:00,33.2,28.3,30.52,NE,54,0.0,0.0,82,0.00,,---,0.00,VWS V14.01,2013-10-25 04:31:00,
2013-10-24 23:36:00,33.1,28.5,30.52,NE,54,0.0,0.0,83,0.00,,---,0.00,VWS V14.01,2013-10-25 04:36:00,
2013-10-24 23:40:00,33.0,28.4,30.52,NE,54,0.0,0.0,83,0.00,,---,0.00,VWS V14.01,2013-10-25 04:40:00,
2013-10-24 23:41:00,33.0,28.4,30.52,NE,54,0.0,0.0,83,0.00,,---,0.00,VWS V14.01,2013-10-25 04:41:00,
2013-10-24 23:46:00,32.8,28.2,30.52,NE,54,0.0,0.0,83,0.00,,---,0.00,VWS V14.01,2013-10-25 04:46:00,
2013-10-24 23:50:00,33.9,29.0,30.52,NE,54,0.0,0.0,82,0.00,,---,0.00,VWS V14.01,2013-10-25 04:50:00,
2013-10-24 23:51:00,32.8,28.5,30.52,NE,54,0.0,0.0,84,0.00,,---,0.00,VWS V14.01,2013-10-25 04:51:00,
2013-10-24 23:56:00,32.7,28.4,30.52,NE,54,0.0,0.0,84,0.00,,---,0.00,VWS V14.01,2013-10-25 04:56:00,